• Em Portugal
  • Lista de países
  • Para 7 dias
  • Temperatura da água
  • Mapas de satélite
  • Mapa do tempo
  • Widgets de tempo
  • user-avatar
    Iniciar Sessão

    Previsão horária em Konstantyna

    Hoje, 24 Fevereiro, Sábado

    Tempo Temperatura Precipitação Vento Pressão Humidade
    00:00 +3°C° 0 mm 1 m/s 701 mmHg 87%
    01:00 +3°C° 0 mm 1 m/s 701 mmHg 85%
    02:00 +3°C° 0 mm 1 m/s 701 mmHg 84%
    03:00 +3°C° 0 mm 1 m/s 701 mmHg 83%
    04:00 +3°C° 0 mm 1 m/s 701 mmHg 82%
    05:00 +3°C° 0 mm 1 m/s 701 mmHg 81%
    06:00 +2°C° 0 mm 1 m/s 701 mmHg 79%
    07:00 +4°C° 0 mm 1 m/s 701 mmHg 72%
    08:00 +6°C° 0 mm 1 m/s 702 mmHg 65%
    09:00 +8°C° 0 mm 1 m/s 702 mmHg 59%
    10:00 +9°C° 0 mm 2 m/s 702 mmHg 56%
    11:00 +10°C° 0 mm 2 m/s 702 mmHg 54%
    12:00 +12°C° 0 mm 2 m/s 701 mmHg 52%
    13:00 +11°C° 0,1 mm 3 m/s 701 mmHg 56%
    14:00 +11°C° 0,1 mm 3 m/s 701 mmHg 60%
    15:00 +10°C° 0,1 mm 3 m/s 701 mmHg 64%
    16:00 +9°C° 0,2 mm 3 m/s 701 mmHg 73%
    17:00 +7°C° 0,2 mm 3 m/s 701 mmHg 81%
    18:00 +6°C° 0,2 mm 2 m/s 701 mmHg 90%
    19:00 +6°C° 0,1 mm 2 m/s 701 mmHg 91%
    20:00 +5°C° 0,1 mm 2 m/s 701 mmHg 93%
    21:00 +6°C° 0,1 mm 1 m/s 702 mmHg 94%
    22:00 +5°C° 0 mm 1 m/s 702 mmHg 94%
    23:00 +5°C° 0 mm 1 m/s 702 mmHg 93%

    Amanhã, 25 Fevereiro, Domingo

    Tempo Temperatura Precipitação Vento Pressão Humidade
    00:00 +5°C° 0 mm 1 m/s 703 mmHg 93%
    01:00 +5°C° 0 mm 1 m/s 702 mmHg 92%
    02:00 +5°C° 0 mm 1 m/s 702 mmHg 92%
    03:00 +5°C° 0 mm 1 m/s 702 mmHg 91%
    04:00 +5°C° 0 mm 1 m/s 702 mmHg 91%
    05:00 +5°C° 0 mm 1 m/s 703 mmHg 91%
    06:00 +5°C° 0 mm 1 m/s 703 mmHg 91%
    07:00 +6°C° 0 mm 1 m/s 703 mmHg 84%
    08:00 +6°C° 0 mm 2 m/s 704 mmHg 77%
    09:00 +7°C° 0 mm 2 m/s 704 mmHg 70%
    10:00 +8°C° 0 mm 2 m/s 704 mmHg 66%
    11:00 +8°C° 0 mm 3 m/s 704 mmHg 63%
    12:00 +9°C° 0 mm 3 m/s 705 mmHg 59%
    13:00 +8°C° 0 mm 4 m/s 704 mmHg 57%
    14:00 +10°C° 0 mm 4 m/s 704 mmHg 55%
    15:00 +9°C° 0 mm 5 m/s 704 mmHg 53%
    16:00 +7°C° 0 mm 4 m/s 704 mmHg 58%
    17:00 +7°C° 0 mm 3 m/s 704 mmHg 64%
    18:00 +5°C° 0 mm 2 m/s 704 mmHg 69%
    19:00 +5°C° 0 mm 2 m/s 704 mmHg 70%
    20:00 +4°C° 0 mm 2 m/s 704 mmHg 72%
    21:00 +4°C° 0 mm 2 m/s 705 mmHg 73%
    22:00 +4°C° 0 mm 2 m/s 705 mmHg 73%
    23:00 +4°C° 0 mm 2 m/s 705 mmHg 74%

    Depois de amanhã, 26 Fevereiro, Segunda-feira

    Tempo Temperatura Precipitação Vento Pressão Humidade
    00:00 +3°C° 0 mm 2 m/s 704 mmHg 74%
    01:00 +3°C° 0 mm 2 m/s 704 mmHg 75%
    02:00 +3°C° 0 mm 2 m/s 704 mmHg 76%
    03:00 +3°C° 0 mm 2 m/s 704 mmHg 78%
    04:00 +3°C° 0 mm 2 m/s 704 mmHg 78%
    05:00 +2°C° 0 mm 2 m/s 703 mmHg 78%
    06:00 +2°C° 0 mm 2 m/s 703 mmHg 78%
    07:00 +5°C° 0 mm 2 m/s 704 mmHg 67%
    08:00 +7°C° 0 mm 2 m/s 704 mmHg 57%
    09:00 +9°C° 0 mm 2 m/s 704 mmHg 47%
    10:00 +12°C° 0 mm 2 m/s 704 mmHg 41%
    11:00 +13°C° 0 mm 2 m/s 704 mmHg 36%
    12:00 +14°C° 0 mm 2 m/s 704 mmHg 31%
    13:00 +14°C° 0 mm 3 m/s 703 mmHg 32%
    14:00 +14°C° 0 mm 3 m/s 703 mmHg 32%
    15:00 +14°C° 0 mm 3 m/s 702 mmHg 33%
    16:00 +12°C° 0 mm 3 m/s 702 mmHg 43%
    17:00 +10°C° 0 mm 2 m/s 702 mmHg 53%
    18:00 +8°C° 0 mm 2 m/s 701 mmHg 63%
    19:00 +7°C° 0 mm 2 m/s 701 mmHg 66%
    20:00 +8°C° 0 mm 1 m/s 701 mmHg 68%
    21:00 +7°C° 0 mm 1 m/s 701 mmHg 71%
    22:00 +7°C° 0 mm 1 m/s 700 mmHg 69%
    23:00 +8°C° 0 mm 1 m/s 700 mmHg 68%

    27 Fevereiro, Terça-feira

    Tempo Temperatura Precipitação Vento Pressão Humidade
    00:00 +8°C° 0 mm 1 m/s 700 mmHg 66%
    01:00 +8°C° 0,3 mm 1 m/s 699 mmHg 69%
    02:00 +8°C° 0,3 mm 1 m/s 699 mmHg 72%
    03:00 +8°C° 0,3 mm 1 m/s 699 mmHg 75%
    04:00 +8°C° 0,7 mm 1 m/s 699 mmHg 78%
    05:00 +7°C° 0,7 mm 1 m/s 699 mmHg 81%
    06:00 +7°C° 0,7 mm 1 m/s 699 mmHg 84%
    07:00 +8°C° 0,1 mm 1 m/s 700 mmHg 81%
    08:00 +9°C° 0,1 mm 1 m/s 700 mmHg 77%
    09:00 +10°C° 0,1 mm 1 m/s 700 mmHg 74%
    10:00 +9°C° 0 mm 2 m/s 701 mmHg 70%
    11:00 +10°C° 0 mm 2 m/s 701 mmHg 67%
    12:00 +12°C° 0 mm 2 m/s 701 mmHg 63%
    13:00 +12°C° 0 mm 2 m/s 701 mmHg 62%
    14:00 +12°C° 0 mm 2 m/s 701 mmHg 61%
    15:00 +12°C° 0 mm 2 m/s 701 mmHg 61%
    16:00 +10°C° 0 mm 2 m/s 702 mmHg 66%
    17:00 +10°C° 0 mm 1 m/s 702 mmHg 72%
    18:00 +9°C° 0 mm 1 m/s 702 mmHg 78%
    19:00 +9°C° 0 mm 1 m/s 703 mmHg 77%
    20:00 +8°C° 0 mm 2 m/s 703 mmHg 77%
    21:00 +8°C° 0 mm 2 m/s 703 mmHg 76%
    22:00 +8°C° 0 mm 2 m/s 703 mmHg 77%
    23:00 +7°C° 0 mm 3 m/s 703 mmHg 77%

    28 Fevereiro, Quarta-feira

    Tempo Temperatura Precipitação Vento Pressão Humidade
    00:00 +7°C° 0 mm 3 m/s 703 mmHg 78%
    01:00 +7°C° 0 mm 3 m/s 703 mmHg 80%
    02:00 +7°C° 0 mm 3 m/s 703 mmHg 81%
    03:00 +7°C° 0 mm 3 m/s 703 mmHg 83%
    04:00 +7°C° 0 mm 3 m/s 704 mmHg 82%
    05:00 +7°C° 0 mm 2 m/s 704 mmHg 82%
    06:00 +6°C° 0 mm 2 m/s 704 mmHg 82%
    07:00 +9°C° 0 mm 3 m/s 705 mmHg 73%
    08:00 +11°C° 0 mm 3 m/s 706 mmHg 65%
    09:00 +14°C° 0 mm 3 m/s 706 mmHg 56%
    10:00 +15°C° 0 mm 4 m/s 706 mmHg 51%
    11:00 +17°C° 0 mm 5 m/s 706 mmHg 45%
    12:00 +20°C° 0 mm 6 m/s 706 mmHg 39%
    13:00 +20°C° 0 mm 6 m/s 705 mmHg 40%
    14:00 +21°C° 0 mm 6 m/s 705 mmHg 40%
    15:00 +21°C° 0 mm 7 m/s 704 mmHg 40%
    16:00 +19°C° 0 mm 6 m/s 704 mmHg 44%
    17:00 +16°C° 0 mm 5 m/s 703 mmHg 47%
    18:00 +13°C° 0 mm 4 m/s 703 mmHg 50%
    19:00 +13°C° 0 mm 4 m/s 703 mmHg 51%
    20:00 +12°C° 0 mm 4 m/s 703 mmHg 51%
    21:00 +12°C° 0 mm 4 m/s 703 mmHg 52%
    22:00 +12°C° 0 mm 5 m/s 703 mmHg 49%
    23:00 +12°C° 0 mm 5 m/s 702 mmHg 46%

    1 Março, Quinta-feira

    Tempo Temperatura Precipitação Vento Pressão Humidade
    00:00 +13°C° 0 mm 5 m/s 702 mmHg 43%
    01:00 +12°C° 0 mm 5 m/s 702 mmHg 44%
    02:00 +12°C° 0 mm 4 m/s 701 mmHg 44%
    03:00 +11°C° 0 mm 4 m/s 701 mmHg 45%
    04:00 +11°C° 0 mm 4 m/s 701 mmHg 45%
    05:00 +11°C° 0 mm 4 m/s 701 mmHg 45%
    06:00 +11°C° 0 mm 4 m/s 701 mmHg 46%
    07:00 +13°C° 0 mm 5 m/s 701 mmHg 44%
    08:00 +15°C° 0 mm 6 m/s 701 mmHg 42%
    09:00 +17°C° 0 mm 6 m/s 701 mmHg 41%
    10:00 +20°C° 0 mm 8 m/s 701 mmHg 38%
    11:00 +22°C° 0 mm 9 m/s 700 mmHg 35%
    12:00 +23°C° 0 mm 11 m/s 700 mmHg 32%
    13:00 +23°C° 0 mm 11 m/s 700 mmHg 33%
    14:00 +23°C° 0 mm 10 m/s 699 mmHg 33%
    15:00 +22°C° 0 mm 10 m/s 699 mmHg 33%
    16:00 +20°C° 0 mm 8 m/s 699 mmHg 40%
    17:00 +17°C° 0 mm 6 m/s 700 mmHg 47%
    18:00 +14°C° 0 mm 4 m/s 700 mmHg 54%
    19:00 +14°C° 0 mm 4 m/s 700 mmHg 56%
    20:00 +13°C° 0 mm 4 m/s 701 mmHg 58%
    21:00 +12°C° 0 mm 3 m/s 702 mmHg 59%
    22:00 +12°C° 0 mm 3 m/s 702 mmHg 60%
    23:00 +12°C° 0 mm 4 m/s 702 mmHg 60%
    Mostrar mais